| time (UTC) | temp F | wind direction | speed knots | gust knots | rain 1hr in | rain 24hr in | rain mn in | humidity % | barometer mb |
| 20260903235518 | 68 | 16 | 2.6 | 4.3 | 0.24 | 0.63 | 0.63 | 95 | 1017.0 |
| 20260903235014 | 68 | 57 | 1.7 | 4.3 | 0.17 | 0.61 | 0.61 | 95 | 1017.3 |
| 20260903234509 | 69 | 36 | 4.3 | 4.3 | 0.19 | 0.59 | 0.59 | 95 | 1017.6 |
| 20260903234005 | 69 | 44 | 0.9 | 3.5 | 0.31 | 0.57 | 0.57 | 94 | 1017.9 |
| 20260903233501 | 69 | 55 | 6.1 | 9.6 | 0.47 | 0.56 | 0.56 | 94 | 1017.7 |
| 20260903232955 | 69 | 357 | 7.0 | 8.7 | 0.61 | 0.51 | 0.51 | 94 | 1017.8 |
| 20260903232451 | 69 | 341 | 3.5 | 7.0 | 0.73 | 0.47 | 0.47 | 93 | 1018.1 |
| 20260903231950 | 70 | 320 | 2.6 | 6.1 | 0.47 | 0.40 | 0.40 | 92 | 1018.2 |
| 20260903231446 | 70 | 342 | 7.0 | 9.6 | 0.31 | 0.35 | 0.35 | 92 | 1017.8 |
| 20260903230940 | 71 | 41 | 6.1 | 10.4 | 0.12 | 0.31 | 0.31 | 91 | 1017.1 |
| 20260903230436 | 71 | 357 | 14.8 | 22.6 | 0.05 | 0.30 | 0.30 | 88 | 1016.7 |
| 20260903225932 | 72 | 350 | 13.9 | 20.0 | 0.00 | 0.29 | 0.29 | 86 | 1016.3 |
| 20260903225427 | 74 | 356 | 19.1 | 28.7 | 0.00 | 0.29 | 0.29 | 83 | 1016.6 |
| 20260903224924 | 76 | 21 | 26.1 | 32.2 | 0.00 | 0.29 | 0.29 | 81 | 1016.3 |
| 20260903224419 | 75 | 344 | 5.2 | 6.1 | 0.00 | 0.29 | 0.29 | 85 | 1014.8 |
| 20260903223915 | 75 | 358 | 4.3 | 4.3 | 0.00 | 0.29 | 0.29 | 85 | 1014.4 |
| 20260903223414 | 75 | 5 | 7.0 | 8.7 | 0.00 | 0.29 | 0.29 | 86 | 1014.4 |
| 20260903222913 | 75 | 343 | 2.6 | 8.7 | 0.00 | 0.29 | 0.29 | 87 | 1014.3 |
| 20260903222408 | 75 | 330 | 1.7 | 2.6 | 0.00 | 0.29 | 0.29 | 88 | 1014.4 |
| 20260903221902 | 75 | 66 | 2.6 | 6.1 | 0.00 | 0.29 | 0.29 | 88 | 1014.4 |
| 20260903221402 | 75 | 333 | 0.9 | 3.5 | 0.00 | 0.29 | 0.29 | 87 | 1014.5 |
| 20260903220900 | 76 | 169 | 0.9 | 2.6 | 0.00 | 0.29 | 0.29 | 86 | 1014.3 |
| 20260903220348 | 76 | 72 | 1.7 | 4.3 | 0.00 | 0.29 | 0.29 | 83 | 1013.9 |
| 20260903215846 | 76 | 24 | 0.9 | 0.9 | 0.00 | 0.29 | 0.29 | 81 | 1014.1 |
| 20260903215344 | 76 | 139 | 1.7 | 2.6 | 0.00 | 0.29 | 0.29 | 83 | 1014.7 |
| 20260903214841 | 76 | 124 | 1.7 | 6.1 | 0.00 | 0.29 | 0.29 | 80 | 1014.1 |
| 20260903214337 | 76 | 200 | 2.6 | 3.5 | 0.00 | 0.29 | 0.29 | 84 | 1014.4 |
| 20260903213831 | 77 | 147 | 0.0 | 2.6 | 0.00 | 0.29 | 0.29 | 82 | 1014.3 |
| 20260903213327 | 77 | 349 | 0.9 | 2.6 | 0.00 | 0.29 | 0.29 | 81 | 1014.6 |
| 20260903212823 | 76 | 145 | 1.7 | 4.3 | 0.00 | 0.29 | 0.29 | 81 | 1014.2 |
| 20260903212319 | 77 | 314 | 0.9 | 0.9 | 0.00 | 0.29 | 0.29 | 81 | 1014.0 |
| 20260903211818 | 77 | 248 | 4.3 | 6.1 | 0.00 | 0.29 | 0.29 | 80 | 1013.8 |
| 20260903211315 | 77 | 283 | 3.5 | 6.1 | 0.00 | 0.29 | 0.29 | 79 | 1013.8 |
| 20260903210810 | 77 | 220 | 2.6 | 6.1 | 0.00 | 0.29 | 0.29 | 77 | 1014.0 |
| 20260903210305 | 78 | 106 | 3.5 | 8.7 | 0.00 | 0.29 | 0.29 | 75 | 1013.8 |
| 20260903205759 | 78 | 219 | 0.9 | 9.6 | 0.00 | 0.29 | 0.29 | 73 | 1013.8 |
| 20260903205259 | 79 | 162 | 5.2 | 6.1 | 0.00 | 0.29 | 0.29 | 69 | 1013.9 |
| 20260903204754 | 80 | 117 | 2.6 | 2.6 | 0.00 | 0.29 | 0.29 | 66 | 1013.8 |
| 20260903204250 | 79 | 99 | 2.6 | 4.3 | 0.00 | 0.29 | 0.29 | 66 | 1014.1 |
| 20260903203751 | 79 | 149 | 5.2 | 6.1 | 0.00 | 0.29 | 0.29 | 66 | 1014.0 |
| 20260903203246 | 79 | 106 | 2.6 | 3.5 | 0.00 | 0.29 | 0.29 | 67 | 1014.3 |
| 20260903202745 | 79 | 64 | 1.7 | 4.3 | 0.00 | 0.29 | 0.29 | 64 | 1014.4 |
| 20260903202242 | 79 | 121 | 6.1 | 10.4 | 0.00 | 0.29 | 0.29 | 65 | 1014.3 |
| 20260903201741 | 79 | 162 | 7.0 | 8.7 | 0.00 | 0.29 | 0.29 | 67 | 1014.5 |
| 20260903201236 | 78 | 351 | 4.3 | 9.6 | 0.00 | 0.29 | 0.29 | 65 | 1014.8 |
| 20260903200735 | 75 | 351 | 11.3 | 13.9 | 0.00 | 0.29 | 0.29 | 66 | 1014.8 |
| 20260903200231 | 77 | 151 | 15.6 | 31.3 | 0.00 | 0.29 | 0.29 | 65 | 1014.0 |
| 20260903195726 | 78 | 225 | 3.5 | 10.4 | 0.00 | 0.29 | 0.29 | 66 | 1014.3 |
| 20260903195222 | 79 | 226 | 7.8 | 15.6 | 0.00 | 0.29 | 0.29 | 62 | 1013.8 |
| 20260903194722 | 80 | 229 | 5.2 | 12.2 | 0.00 | 0.29 | 0.29 | 62 | 1013.5 |
| 20260903194218 | 82 | 247 | 3.5 | 9.6 | 0.00 | 0.29 | 0.29 | 58 | 1013.8 |
| 20260903193713 | 83 | 212 | 5.2 | 10.4 | 0.00 | 0.29 | 0.29 | 56 | 1013.8 |
| 20260903193208 | 84 | 223 | 11.3 | 15.6 | 0.00 | 0.29 | 0.29 | 55 | 1013.9 |
| 20260903192704 | 87 | 291 | 7.8 | 13.0 | 0.00 | 0.29 | 0.29 | 59 | 1014.1 |
| 20260903192200 | 88 | 268 | 7.0 | 12.2 | 0.00 | 0.29 | 0.29 | 62 | 1013.9 |
| 20260903191656 | 89 | 236 | 0.9 | 3.5 | 0.00 | 0.29 | 0.29 | 65 | 1013.4 |
| 20260903191155 | 89 | 232 | 1.7 | 3.5 | 0.00 | 0.29 | 0.29 | 66 | 1013.4 |
| 20260903190650 | 89 | 217 | 3.5 | 4.3 | 0.00 | 0.29 | 0.29 | 64 | 1013.9 |
| 20260903190145 | 91 | 215 | 3.5 | 6.1 | 0.00 | 0.29 | 0.29 | 62 | 1014.2 |
| 20260903185640 | 92 | 151 | 1.7 | 2.6 | 0.00 | 0.29 | 0.29 | 61 | 1014.5 |
| 20260903185135 | 92 | 145 | 4.3 | 7.0 | 0.00 | 0.29 | 0.29 | 58 | 1014.4 |
| 20260903184632 | 91 | 227 | 0.9 | 3.5 | 0.00 | 0.29 | 0.29 | 60 | 1014.4 |
| 20260903184127 | 91 | 125 | 2.6 | 7.0 | 0.00 | 0.29 | 0.29 | 62 | 1014.6 |
| 20260903183625 | 91 | 184 | 2.6 | 4.3 | 0.00 | 0.29 | 0.29 | 60 | 1014.7 |
| 20260903183121 | 91 | 42 | 0.0 | 2.6 | 0.00 | 0.29 | 0.29 | 63 | 1015.0 |
| 20260903182620 | 90 | 199 | 2.6 | 4.3 | 0.00 | 0.29 | 0.29 | 61 | 1014.8 |
| 20260903182116 | 90 | 169 | 3.5 | 4.3 | 0.00 | 0.29 | 0.29 | 62 | 1014.8 |
| 20260903181614 | 89 | 267 | 1.7 | 4.3 | 0.00 | 0.29 | 0.29 | 65 | 1015.0 |
| 20260903181109 | 89 | 351 | 0.9 | 3.5 | 0.00 | 0.29 | 0.29 | 63 | 1014.9 |
| 20260903180605 | 89 | 238 | 5.2 | 8.7 | 0.00 | 0.29 | 0.29 | 64 | 1014.9 |
| 20260903180059 | 88 | 240 | 4.3 | 6.1 | 0.00 | 0.29 | 0.29 | 65 | 1015.1 |
| 20260903175558 | 88 | 284 | 1.7 | 6.1 | 0.00 | 0.29 | 0.29 | 65 | 1015.0 |
| 20260903175058 | 88 | 355 | 6.1 | 7.0 | 0.00 | 0.29 | 0.29 | 64 | 1015.1 |
| 20260903174553 | 88 | 236 | 3.5 | 4.3 | 0.00 | 0.29 | 0.29 | 65 | 1015.1 |
| 20260903174047 | 87 | 251 | 4.3 | 6.1 | 0.00 | 0.29 | 0.29 | 69 | 1015.2 |
| 20260903173542 | 87 | 283 | 2.6 | 3.5 | 0.00 | 0.29 | 0.29 | 67 | 1015.4 |
| 20260903173038 | 88 | 262 | 1.7 | 4.3 | 0.00 | 0.29 | 0.29 | 67 | 1015.5 |
| 20260903172533 | 88 | 273 | 2.6 | 2.6 | 0.00 | 0.29 | 0.29 | 66 | 1015.5 |
| 20260903172028 | 87 | 255 | 2.6 | 4.3 | 0.00 | 0.29 | 0.29 | 66 | 1015.7 |
| 20260903171523 | 87 | 260 | 0.9 | 2.6 | 0.00 | 0.29 | 0.29 | 67 | 1015.6 |
| 20260903171019 | 86 | 328 | 2.6 | 7.0 | 0.00 | 0.29 | 0.29 | 68 | 1015.6 |
| 20260903170517 | 86 | 271 | 2.6 | 6.1 | 0.00 | 0.29 | 0.29 | 67 | 1015.8 |
| 20260903170013 | 86 | 142 | 2.6 | 4.3 | 0.00 | 0.29 | 0.29 | 70 | 1015.8 |
| 20260903165505 | 86 | 225 | 3.5 | 4.3 | 0.00 | 0.29 | 0.29 | 67 | 1015.7 |
| 20260903165000 | 85 | 273 | 0.9 | 6.1 | 0.00 | 0.29 | 0.29 | 68 | 1015.9 |
| 20260903164455 | 85 | 165 | 2.6 | 7.0 | 0.00 | 0.29 | 0.29 | 69 | 1015.9 |
| 20260903163955 | 85 | 256 | 2.6 | 3.5 | 0.00 | 0.29 | 0.29 | 70 | 1016.0 |
| 20260903163451 | 84 | 315 | 2.6 | 4.3 | 0.00 | 0.29 | 0.29 | 71 | 1016.0 |
| 20260903162946 | 84 | 120 | 0.9 | 4.3 | 0.00 | 0.29 | 0.29 | 70 | 1015.9 |
| 20260903162437 | 84 | 148 | 2.6 | 3.5 | 0.00 | 0.29 | 0.29 | 72 | 1015.9 |
| 20260903161932 | 84 | 269 | 4.3 | 7.0 | 0.00 | 0.29 | 0.29 | 71 | 1016.0 |
| 20260903161422 | 84 | 279 | 3.5 | 8.7 | 0.00 | 0.29 | 0.29 | 71 | 1015.9 |
| 20260903160918 | 83 | 209 | 2.6 | 4.3 | 0.00 | 0.29 | 0.29 | 72 | 1015.9 |
| 20260903160417 | 84 | 271 | 6.1 | 8.7 | 0.00 | 0.29 | 0.29 | 69 | 1016.1 |
| 20260903155916 | 84 | 164 | 1.7 | 2.6 | 0.00 | 0.29 | 0.29 | 75 | 1016.2 |
| 20260903155411 | 84 | 225 | 6.1 | 7.0 | 0.00 | 0.29 | 0.29 | 71 | 1016.3 |
| 20260903154907 | 84 | 227 | 4.3 | 8.7 | 0.00 | 0.29 | 0.29 | 72 | 1016.2 |
| 20260903154402 | 83 | 335 | 1.7 | 4.3 | 0.00 | 0.29 | 0.29 | 73 | 1016.4 |
| 20260903153857 | 82 | 237 | 1.7 | 8.7 | 0.00 | 0.29 | 0.29 | 74 | 1016.5 |
| 20260903153352 | 82 | 157 | 5.2 | 7.0 | 0.00 | 0.29 | 0.29 | 74 | 1016.3 |
| 20260903152849 | 81 | 43 | 3.5 | 4.3 | 0.00 | 0.29 | 0.29 | 79 | 1016.3 |
| 20260903152344 | 81 | 226 | 1.7 | 3.5 | 0.00 | 0.29 | 0.29 | 80 | 1016.5 |
| 20260903151839 | 81 | 191 | 5.2 | 7.0 | 0.00 | 0.29 | 0.29 | 76 | 1016.5 |
| 20260903151334 | 80 | 234 | 2.6 | 3.5 | 0.00 | 0.29 | 0.29 | 79 | 1016.4 |
| 20260903150829 | 79 | 232 | 1.7 | 4.3 | 0.00 | 0.29 | 0.29 | 80 | 1016.5 |
| 20260903150324 | 79 | 237 | 4.3 | 6.1 | 0.00 | 0.29 | 0.29 | 80 | 1016.2 |
| 20260903145818 | 79 | 177 | 2.6 | 9.6 | 0.00 | 0.29 | 0.29 | 81 | 1016.3 |
| 20260903145314 | 78 | 217 | 4.3 | 6.1 | 0.00 | 0.29 | 0.29 | 81 | 1016.4 |
| 20260903144813 | 78 | 148 | 1.7 | 3.5 | 0.00 | 0.29 | 0.29 | 83 | 1016.6 |
| 20260903144308 | 78 | 129 | 3.5 | 7.0 | 0.00 | 0.29 | 0.29 | 81 | 1016.6 |
| 20260903143804 | 77 | 198 | 2.6 | 4.3 | 0.00 | 0.29 | 0.29 | 83 | 1016.6 |
| 20260903143300 | 76 | 134 | 0.9 | 0.9 | 0.00 | 0.29 | 0.29 | 85 | 1016.6 |
| 20260903142756 | 76 | 129 | 2.6 | 3.5 | 0.00 | 0.29 | 0.29 | 85 | 1016.4 |
| 20260903142251 | 76 | 130 | 1.7 | 6.1 | 0.00 | 0.29 | 0.29 | 85 | 1016.3 |
| 20260903141747 | 76 | 102 | 1.7 | 3.5 | 0.00 | 0.29 | 0.29 | 87 | 1016.4 |
| 20260903141242 | 75 | 160 | 3.5 | 6.1 | 0.00 | 0.29 | 0.29 | 87 | 1016.4 |
| 20260903140737 | 74 | 141 | 4.3 | 4.3 | 0.00 | 0.29 | 0.29 | 87 | 1016.3 |
| 20260903140232 | 73 | 130 | 0.9 | 3.5 | 0.00 | 0.29 | 0.29 | 90 | 1016.5 |
| 20260903135728 | 73 | 175 | 4.3 | 6.1 | 0.00 | 0.29 | 0.29 | 90 | 1016.5 |
| 20260903135223 | 73 | 142 | 1.7 | 2.6 | 0.00 | 0.29 | 0.29 | 92 | 1016.4 |
| 20260903134721 | 73 | 130 | 2.6 | 3.5 | 0.00 | 0.29 | 0.29 | 92 | 1016.6 |
| 20260903134218 | 72 | 144 | 0.9 | 3.5 | 0.00 | 0.29 | 0.29 | 91 | 1016.4 |
| 20260903133715 | 72 | 136 | 3.5 | 4.3 | 0.00 | 0.29 | 0.29 | 91 | 1016.4 |
| 20260903133212 | 72 | 205 | 1.7 | 2.6 | 0.00 | 0.29 | 0.29 | 93 | 1016.4 |
| 20260903132711 | 72 | 138 | 2.6 | 3.5 | 0.00 | 0.29 | 0.29 | 93 | 1016.6 |
| 20260903132206 | 72 | 67 | 0.9 | 0.9 | 0.00 | 0.29 | 0.29 | 93 | 1016.5 |
| 20260903131701 | 72 | 135 | 3.5 | 3.5 | 0.00 | 0.29 | 0.29 | 93 | 1016.5 |
| 20260903131200 | 71 | 96 | 0.9 | 0.9 | 0.00 | 0.29 | 0.29 | 93 | 1016.5 |
| 20260903130655 | 71 | 120 | 0.9 | 2.6 | 0.00 | 0.29 | 0.29 | 94 | 1016.4 |
| 20260903130150 | 70 | 219 | 0.9 | 0.9 | 0.00 | 0.29 | 0.29 | 96 | 1016.5 |
| 20260903125649 | 70 | 132 | 1.7 | 3.5 | 0.00 | 0.29 | 0.29 | 96 | 1016.5 |
| 20260903125144 | 70 | 181 | 0.9 | 2.6 | 0.00 | 0.29 | 0.29 | 96 | 1016.5 |
| 20260903124643 | 70 | 233 | 0.0 | 0.9 | 0.00 | 0.29 | 0.29 | 97 | 1016.4 |
| 20260903124138 | 69 | 216 | 0.9 | 2.6 | 0.00 | 0.29 | 0.29 | 97 | 1016.5 |
| 20260903123637 | 69 | 178 | 0.0 | 0.0 | 0.00 | 0.29 | 0.29 | 97 | 1016.5 |
| 20260903123136 | 69 | 180 | 0.9 | 0.9 | 0.00 | 0.29 | 0.29 | 96 | 1016.4 |
| 20260903122630 | 68 | 123 | 0.9 | 0.9 | 0.00 | 0.29 | 0.29 | 96 | 1016.5 |
| 20260903122125 | 68 | 121 | 0.0 | 0.0 | 0.00 | 0.29 | 0.29 | 96 | 1016.3 |
| 20260903121624 | 68 | 123 | 0.9 | 2.6 | 0.00 | 0.29 | 0.29 | 96 | 1016.5 |
| 20260903121120 | 68 | 123 | 0.9 | 2.6 | 0.00 | 0.29 | 0.29 | 96 | 1016.6 |
| 20260903120619 | 68 | 92 | 0.0 | 0.9 | 0.19 | 0.29 | 0.29 | 95 | 1016.4 |
| 20260903120113 | 68 | 253 | 1.7 | 0.9 | 1.09 | 0.29 | 0.29 | 95 | 1017.2 |
| 20260903115611 | 69 | 74 | 0.9 | 0.9 | 1.37 | 0.24 | 0.24 | 93 | 1017.2 |
| 20260903115107 | 69 | 351 | 4.3 | 4.3 | 0.42 | 0.07 | 0.07 | 92 | 1018.0 |
| 20260903114602 | 69 | 7 | 1.7 | 0.9 | 0.07 | 0.01 | 0.01 | 91 | 1017.0 |
| 20260903114058 | 69 | 258 | 1.7 | 2.6 | 0.00 | 0.00 | 0.00 | 89 | 1016.6 |
| 20260903113553 | 69 | 144 | 4.3 | 4.3 | 0.00 | 0.00 | 0.00 | 89 | 1016.4 |
| 20260903113049 | 70 | 138 | 1.7 | 3.5 | 0.00 | 0.00 | 0.00 | 88 | 1016.9 |
| 20260903112544 | 69 | 20 | 0.0 | 4.3 | 0.00 | 0.00 | 0.00 | 87 | 1017.4 |
| 20260903112039 | 70 | 347 | 2.6 | 3.5 | 0.00 | 0.00 | 0.00 | 88 | 1017.3 |
| 20260903111537 | 70 | 227 | 1.7 | 2.6 | 0.00 | 0.00 | 0.00 | 86 | 1017.1 |
| 20260903111034 | 71 | 4 | 0.0 | 0.0 | 0.00 | 0.00 | 0.00 | 83 | 1017.1 |
| 20260903110530 | 71 | 16 | 3.5 | 3.5 | 0.00 | 0.00 | 0.00 | 82 | 1017.0 |
| 20260903110030 | 71 | 29 | 2.6 | 6.1 | 0.00 | 0.00 | 0.00 | 81 | 1017.1 |
| 20260903105525 | 72 | 29 | 4.3 | 6.1 | 0.00 | 0.00 | 0.00 | 80 | 1016.9 |
| 20260903105019 | 72 | 65 | 4.3 | 8.7 | 0.00 | 0.00 | 0.00 | 79 | 1016.9 |
| 20260903104514 | 72 | 37 | 5.2 | 7.0 | 0.00 | 0.00 | 0.00 | 78 | 1017.0 |
| 20260903104010 | 72 | 355 | 6.1 | 9.6 | 0.00 | 0.00 | 0.00 | 77 | 1016.6 |
| 20260903103506 | 72 | 9 | 6.1 | 10.4 | 0.00 | 0.00 | 0.00 | 78 | 1016.6 |
| 20260903103002 | 73 | 57 | 6.1 | 9.6 | 0.00 | 0.00 | 0.00 | 78 | 1017.1 |
| 20260903102457 | 73 | 69 | 9.6 | 13.0 | 0.00 | 0.00 | 0.00 | 77 | 1017.1 |
| 20260903101955 | 74 | 8 | 9.6 | 19.1 | 0.00 | 0.00 | 0.00 | 77 | 1016.7 |
| 20260903101450 | 74 | 352 | 13.9 | 15.6 | 0.00 | 0.00 | 0.00 | 77 | 1017.3 |
| 20260903100946 | 74 | 355 | 11.3 | 13.0 | 0.00 | 0.00 | 0.00 | 82 | 1017.0 |
| 20260903100441 | 74 | 14 | 9.6 | 12.2 | 0.00 | 0.00 | 0.00 | 89 | 1016.3 |
| 20260903095938 | 74 | 232 | 0.0 | 0.9 | 0.00 | 0.00 | 0.00 | 89 | 1015.9 |
| 20260903095432 | 74 | 232 | 0.0 | 0.9 | 0.00 | 0.00 | 0.00 | 89 | 1015.8 |
| 20260903094928 | 74 | 232 | 0.9 | 0.9 | 0.00 | 0.00 | 0.00 | 89 | 1015.7 |
| 20260903094427 | 74 | 231 | 0.0 | 0.9 | 0.00 | 0.00 | 0.00 | 89 | 1015.6 |
| 20260903093923 | 74 | 246 | 1.7 | 2.6 | 0.00 | 0.00 | 0.00 | 89 | 1015.3 |
| 20260903093418 | 74 | 283 | 0.9 | 0.9 | 0.00 | 0.00 | 0.00 | 89 | 1015.1 |
| 20260903092914 | 74 | 283 | 0.0 | 0.9 | 0.00 | 0.00 | 0.00 | 89 | 1014.9 |
| 20260903092408 | 74 | 283 | 0.0 | 0.0 | 0.00 | 0.00 | 0.00 | 88 | 1015.2 |
| 20260903091906 | 74 | 282 | 0.9 | 0.9 | 0.00 | 0.00 | 0.00 | 87 | 1015.3 |
| 20260903091405 | 74 | 284 | 0.0 | 0.0 | 0.00 | 0.00 | 0.00 | 86 | 1015.3 |
| 20260903090901 | 74 | 284 | 0.9 | 0.9 | 0.00 | 0.00 | 0.00 | 86 | 1015.4 |
| 20260903090356 | 75 | 284 | 0.0 | 0.9 | 0.00 | 0.00 | 0.00 | 85 | 1015.2 |
| 20260903085853 | 75 | 284 | 0.9 | 0.9 | 0.00 | 0.00 | 0.00 | 84 | 1015.3 |
| 20260903085348 | 75 | 230 | 0.9 | 0.9 | 0.00 | 0.00 | 0.00 | 84 | 1015.2 |
| 20260903084847 | 74 | 273 | 0.9 | 0.9 | 0.00 | 0.00 | 0.00 | 84 | 1015.2 |
| 20260903084346 | 74 | 278 | 0.0 | 0.0 | 0.00 | 0.00 | 0.00 | 86 | 1015.1 |
| 20260903083841 | 74 | 284 | 1.7 | 2.6 | 0.00 | 0.00 | 0.00 | 86 | 1015.0 |
| 20260903083337 | 74 | 292 | 0.9 | 0.9 | 0.00 | 0.00 | 0.00 | 86 | 1015.1 |
| 20260903082835 | 74 | 292 | 0.0 | 0.0 | 0.00 | 0.00 | 0.00 | 85 | 1015.2 |
| 20260903082331 | 74 | 292 | 0.9 | 0.9 | 0.00 | 0.00 | 0.00 | 87 | 1015.0 |
| 20260903081826 | 74 | 292 | 0.0 | 0.9 | 0.00 | 0.00 | 0.00 | 87 | 1015.1 |
| 20260903081322 | 74 | 292 | 0.0 | 0.9 | 0.00 | 0.00 | 0.00 | 88 | 1015.4 |
| 20260903080818 | 74 | 308 | 0.9 | 2.6 | 0.00 | 0.00 | 0.00 | 86 | 1015.3 |
| 20260903080315 | 74 | 352 | 0.0 | 0.9 | 0.00 | 0.00 | 0.00 | 87 | 1015.4 |
| 20260903075814 | 74 | 352 | 0.9 | 0.9 | 0.00 | 0.00 | 0.00 | 88 | 1015.3 |
| 20260903075310 | 75 | 352 | 0.0 | 0.0 | 0.00 | 0.00 | 0.00 | 87 | 1015.5 |
| 20260903074809 | 75 | 352 | 0.0 | 0.0 | 0.00 | 0.00 | 0.00 | 86 | 1015.5 |
| 20260903074304 | 75 | 352 | 0.0 | 0.9 | 0.00 | 0.00 | 0.00 | 85 | 1015.4 |
| 20260903073800 | 76 | 352 | 0.0 | 0.9 | 0.00 | 0.00 | 0.00 | 84 | 1015.5 |
| 20260903073255 | 77 | 352 | 0.9 | 0.9 | 0.00 | 0.00 | 0.00 | 81 | 1015.4 |
| 20260903072751 | 77 | 352 | 0.0 | 0.0 | 0.00 | 0.00 | 0.00 | 79 | 1015.5 |
| 20260903072247 | 78 | 352 | 0.0 | 0.0 | 0.00 | 0.00 | 0.00 | 77 | 1015.5 |
| 20260903071743 | 78 | 352 | 0.0 | 0.0 | 0.00 | 0.00 | 0.00 | 74 | 1015.4 |
| 20260903071238 | 79 | 351 | 0.0 | 0.9 | 0.00 | 0.00 | 0.00 | 74 | 1015.4 |
| 20260903070738 | 79 | 12 | 0.0 | 0.9 | 0.00 | 0.00 | 0.00 | 73 | 1015.6 |
| 20260903070234 | 79 | 334 | 1.7 | 4.3 | 0.00 | 0.00 | 0.00 | 73 | 1015.5 |
| 20260903065729 | 80 | 298 | 2.6 | 3.5 | 0.00 | 0.00 | 0.00 | 76 | 1015.6 |
| 20260903065228 | 80 | 328 | 2.6 | 4.3 | 0.00 | 0.00 | 0.00 | 76 | 1015.8 |
| 20260903064727 | 80 | 335 | 3.5 | 7.0 | 0.00 | 0.00 | 0.00 | 78 | 1015.7 |
| 20260903064223 | 79 | 344 | 1.7 | 4.3 | 0.00 | 0.00 | 0.00 | 79 | 1015.9 |
| 20260903063719 | 79 | 261 | 4.3 | 6.1 | 0.00 | 0.00 | 0.00 | 79 | 1015.8 |
| 20260903063213 | 78 | 358 | 2.6 | 3.5 | 0.00 | 0.00 | 0.00 | 80 | 1016.0 |
| 20260903062709 | 78 | 359 | 3.5 | 6.1 | 0.00 | 0.00 | 0.00 | 83 | 1016.0 |
| 20260903062204 | 78 | 32 | 0.9 | 0.9 | 0.00 | 0.00 | 0.00 | 82 | 1015.6 |
| 20260903061700 | 78 | 33 | 1.7 | 0.9 | 0.00 | 0.00 | 0.00 | 81 | 1015.3 |
| 20260903061158 | 78 | 193 | 0.9 | 0.9 | 0.00 | 0.00 | 0.00 | 80 | 1015.2 |
| 20260903060654 | 78 | 71 | 0.9 | 0.9 | 0.00 | 0.00 | 0.00 | 81 | 1015.1 |
| 20260903060143 | 78 | 331 | 0.0 | 0.0 | 0.00 | 0.00 | 0.00 | 80 | 1015.2 |
| 20260903055641 | 78 | 281 | 0.0 | 0.9 | 0.00 | 0.00 | 0.00 | 81 | 1015.2 |
| 20260903055139 | 78 | 295 | 2.6 | 3.5 | 0.00 | 0.00 | 0.00 | 81 | 1015.3 |
| 20260903054634 | 78 | 272 | 2.6 | 2.6 | 0.00 | 0.00 | 0.00 | 81 | 1015.2 |
| 20260903054130 | 78 | 239 | 1.7 | 3.5 | 0.00 | 0.00 | 0.00 | 81 | 1015.3 |
| 20260903053626 | 78 | 295 | 1.7 | 2.6 | 0.00 | 0.00 | 0.00 | 81 | 1015.4 |
| 20260903053121 | 78 | 212 | 1.7 | 2.6 | 0.00 | 0.00 | 0.00 | 81 | 1015.3 |
| 20260903052617 | 78 | 134 | 0.9 | 2.6 | 0.00 | 0.00 | 0.00 | 80 | 1015.2 |
| 20260903052112 | 79 | 214 | 0.0 | 0.9 | 0.00 | 0.00 | 0.00 | 80 | 1015.1 |
| 20260903051612 | 79 | 222 | 0.0 | 2.6 | 0.00 | 0.00 | 0.00 | 80 | 1015.0 |
| 20260903051108 | 78 | 264 | 1.7 | 0.9 | 0.00 | 0.00 | 0.00 | 81 | 1015.0 |
| 20260903050602 | 78 | 104 | 0.9 | 0.9 | 0.00 | 0.00 | 0.00 | 81 | 1014.9 |
| 20260903050057 | 78 | 203 | 0.9 | 0.9 | 0.00 | 0.00 | 0.00 | 81 | 1014.8 |
| 20260903045556 | 79 | 232 | 0.9 | 3.5 | 0.00 | 0.00 | 0.00 | 81 | 1015.0 |
| 20260903045053 | 79 | 226 | 0.0 | 0.9 | 0.00 | 0.00 | 0.00 | 80 | 1014.8 |
| 20260903044549 | 79 | 268 | 0.9 | 2.6 | 0.00 | 0.00 | 0.00 | 80 | 1015.0 |
| 20260903044044 | 79 | 191 | 0.9 | 2.6 | 0.00 | 0.00 | 0.00 | 80 | 1015.0 |
| 20260903043540 | 79 | 267 | 0.9 | 0.9 | 0.00 | 0.00 | 0.00 | 80 | 1014.6 |
| 20260903043039 | 79 | 100 | 0.0 | 0.9 | 0.00 | 0.00 | 0.00 | 80 | 1014.6 |
| 20260903042534 | 79 | 219 | 2.6 | 3.5 | 0.00 | 0.00 | 0.00 | 80 | 1014.5 |
| 20260903042029 | 79 | 207 | 0.0 | 0.9 | 0.00 | 0.00 | 0.00 | 80 | 1014.4 |
| 20260903041526 | 79 | 224 | 0.9 | 0.9 | 0.00 | 0.00 | 0.00 | 80 | 1014.5 |
| 20260903041021 | 79 | 249 | 2.6 | 2.6 | 0.00 | 0.00 | 0.00 | 81 | 1014.4 |
| 20260903040519 | 79 | 230 | 0.0 | 0.9 | 0.00 | 0.00 | 0.00 | 81 | 1014.6 |
| 20260903040017 | 79 | 248 | 1.7 | 3.5 | 0.00 | 0.00 | 0.00 | 81 | 1014.1 |
| 20260903035512 | 79 | 206 | 1.7 | 3.5 | 0.00 | 0.00 | 0.00 | 81 | 1014.2 |
| 20260903035007 | 78 | 295 | 1.7 | 3.5 | 0.00 | 0.00 | 0.00 | 83 | 1014.0 |
| 20260903034501 | 78 | 223 | 0.0 | 2.6 | 0.00 | 0.00 | 0.00 | 83 | 1013.9 |
| 20260903033956 | 78 | 231 | 0.0 | 2.6 | 0.00 | 0.00 | 0.00 | 83 | 1014.1 |
| 20260903033452 | 78 | 237 | 1.7 | 2.6 | 0.00 | 0.00 | 0.00 | 85 | 1014.1 |
| 20260903032946 | 78 | 220 | 2.6 | 2.6 | 0.00 | 0.00 | 0.00 | 85 | 1014.2 |
| 20260903032442 | 78 | 235 | 0.9 | 0.9 | 0.00 | 0.00 | 0.00 | 84 | 1014.2 |
| 20260903031937 | 78 | 218 | 1.7 | 0.9 | 0.00 | 0.00 | 0.00 | 84 | 1014.4 |
| 20260903031437 | 78 | 218 | 0.9 | 0.9 | 0.00 | 0.00 | 0.00 | 84 | 1014.3 |
| 20260903030932 | 78 | 278 | 0.0 | 0.9 | 0.00 | 0.00 | 0.00 | 84 | 1014.6 |
| 20260903030428 | 78 | 211 | 0.0 | 0.9 | 0.00 | 0.00 | 0.00 | 85 | 1014.7 |
| 20260903025924 | 78 | 213 | 0.9 | 0.9 | 0.00 | 0.00 | 0.00 | 86 | 1014.7 |
| 20260903025419 | 77 | 226 | 0.0 | 0.0 | 0.00 | 0.00 | 0.00 | 87 | 1015.2 |
| 20260903024914 | 77 | 226 | 0.0 | 0.0 | 0.00 | 0.00 | 0.00 | 87 | 1015.1 |
| 20260903024408 | 77 | 226 | 0.0 | 0.0 | 0.00 | 0.00 | 0.00 | 87 | 1015.2 |
| 20260903023903 | 78 | 226 | 0.0 | 0.0 | 0.00 | 0.00 | 0.00 | 86 | 1015.2 |
| 20260903023359 | 78 | 226 | 0.0 | 0.0 | 0.00 | 0.00 | 0.00 | 86 | 1015.2 |
| 20260903022854 | 78 | 226 | 0.9 | 0.9 | 0.00 | 0.00 | 0.00 | 86 | 1015.1 |
| 20260903022353 | 78 | 227 | 0.0 | 0.0 | 0.00 | 0.00 | 0.00 | 86 | 1015.2 |
| 20260903021851 | 78 | 227 | 0.0 | 0.0 | 0.00 | 0.00 | 0.00 | 85 | 1015.1 |
| 20260903021348 | 78 | 227 | 0.0 | 0.0 | 0.00 | 0.00 | 0.00 | 86 | 1015.1 |
| 20260903020847 | 78 | 227 | 0.0 | 0.9 | 0.00 | 0.00 | 0.00 | 86 | 1015.2 |
| 20260903020343 | 78 | 227 | 0.0 | 0.0 | 0.00 | 0.00 | 0.00 | 86 | 1015.0 |
| 20260903015837 | 78 | 227 | 0.0 | 0.9 | 0.00 | 0.00 | 0.00 | 86 | 1015.1 |
| 20260903015333 | 77 | 210 | 0.0 | 4.3 | 0.00 | 0.00 | 0.00 | 88 | 1015.1 |
| 20260903014828 | 77 | 269 | 0.9 | 0.9 | 0.00 | 0.00 | 0.00 | 88 | 1015.2 |
| 20260903014328 | 78 | 270 | 0.9 | 0.9 | 0.00 | 0.00 | 0.00 | 88 | 1015.2 |
| 20260903013823 | 78 | 270 | 0.0 | 0.0 | 0.00 | 0.00 | 0.00 | 87 | 1015.2 |
| 20260903013322 | 78 | 270 | 0.0 | 0.0 | 0.00 | 0.00 | 0.00 | 86 | 1015.3 |
| 20260903012821 | 79 | 270 | 0.0 | 0.0 | 0.00 | 0.00 | 0.00 | 85 | 1015.3 |
| 20260903012316 | 79 | 270 | 0.0 | 0.0 | 0.00 | 0.00 | 0.00 | 85 | 1015.1 |
| 20260903011815 | 80 | 270 | 0.0 | 0.0 | 0.00 | 0.00 | 0.00 | 82 | 1015.2 |
| 20260903011314 | 80 | 270 | 0.0 | 0.0 | 0.00 | 0.00 | 0.00 | 81 | 1015.4 |
| 20260903010804 | 80 | 270 | 0.0 | 0.0 | 0.00 | 0.00 | 0.00 | 80 | 1015.1 |
| 20260903010300 | 81 | 269 | 0.0 | 0.9 | 0.00 | 0.00 | 0.00 | 79 | 1015.3 |
| 20260903005758 | 81 | 269 | 0.9 | 0.9 | 0.00 | 0.00 | 0.00 | 78 | 1015.1 |
| 20260903005253 | 81 | 267 | 0.9 | 0.9 | 0.00 | 0.00 | 0.00 | 78 | 1015.2 |
| 20260903004749 | 81 | 298 | 0.0 | 0.0 | 0.00 | 0.00 | 0.00 | 77 | 1015.3 |
| 20260903004244 | 81 | 298 | 0.0 | 0.0 | 0.00 | 0.00 | 0.00 | 78 | 1015.2 |
| 20260903003740 | 82 | 298 | 0.0 | 0.0 | 0.00 | 0.00 | 0.00 | 77 | 1015.0 |
| 20260903003235 | 82 | 40 | 0.0 | 0.9 | 0.00 | 0.00 | 0.00 | 77 | 1014.9 |
| 20260903002729 | 83 | 335 | 0.0 | 0.0 | 0.00 | 0.00 | 0.00 | 74 | 1015.0 |
| 20260903002223 | 83 | 336 | 0.0 | 0.0 | 0.00 | 0.00 | 0.00 | 72 | 1014.9 |
| 20260903001719 | 84 | 336 | 0.0 | 0.0 | 0.00 | 0.00 | 0.00 | 71 | 1014.8 |
| 20260903001213 | 84 | 336 | 0.0 | 0.0 | 0.00 | 0.00 | 0.00 | 70 | 1014.7 |
| 20260903000708 | 84 | 333 | 0.9 | 0.9 | 0.00 | 0.00 | 0.00 | 69 | 1014.6 |
| 20260903000208 | 84 | 241 | 0.0 | 3.5 | 0.00 | 0.00 | 0.00 | 70 | 1014.4 |
| 20260902235706 | 84 | 167 | 0.9 | 2.6 | 0.00 | 0.00 | 0.00 | 70 | 1014.2 |